CAPE
1968 2157 2134 1500 1427 1536 1826 2136 2428 2340 2969 2975 2963 2791 2730 2731 2723 2771 2976 3024 2996 3042 2888 3016 2923 2962 2714 2634 2483 2382 2340 2329 2051 2112 2292 2546 2763 2943 2593 2671 2636 2325 2234 2596 2185 2572 2580 2500 2420 2207 2215 2354 2483 2608 2410 2259 2440 2698 2722 2808 2735 2631 2499 2809 2781 2573 2608 2514 2681 2656 2787 2619 2389 2312 2559 2212 2168 2216 2397 2290 2329 1651 2678 2127 2483
1806 2066 2000 2023 1283 1511 1588 1988 2277 2683 2832 2903 2833 2761 2750 2724 2726 2796 2890 2843 2941 2868 2984 2937 2832 2657 2913 2318 2010 1916 1938 2172 2113 2330 2380 2746 2932 2888 2755 2613 2446 2480 2370 2935 2705 2582 2449 2325 2227 2471 2404 2372 2520 2470 2309 2568 2822 2910 2920 2887 2705 2629 2248 2513 2564 2810 2736 2591 2632 2663 2624 2475 2425 2084 2378 2252 2296 2131 2210 1980 1994 1736 2366 2314 2504
1995 2058 1958 1847 1462 1516 1792 2310 2306 2386 2691 2735 2739 2676 2827 2796 2696 2787 2763 2720 2775 2751 2699 2741 2480 2833 2232 1787 1890 1217 1508 1744 2041 2294 2541 2402 2497 2823 2570 2543 2540 2632 2445 2589 2404 2379 2221 2432 2353 2293 2315 2361 2451 2390 2470 2807 2673 2861 2866 2484 2745 2974 2851 2867 2707 2491 2764 2707 2734 2713 2643 2536 2755 2662 2324 2448 2771 2768 2513 2347 2269 2290 2770 2558 2583
2034 1916 2011 1887 1633 1672 1880 2042 2307 2465 2545 2616 2638 2606 2542 2601 2402 2440 2378 2396 2783 2868 2615 2633 2130 2156 1844 1728 1774 1578 1594 1894 2329 2305 2447 2620 2650 2706 2505 2401 2673 2634 2670 2560 2460 2327 2314 2248 2146 2136 2284 2256 2393 2454 2496 2403 2422 2734 2764 2894 2949 3022 2878 2806 2762 2823 2811 2954 2518 2446 2769 2155 2494 2478 2679 2721 2699 2587 2625 2484 2550 2393 2715 2633 2461
1703 1657 2240 1971 2067 1877 1872 1856 1908 2609 2459 2557 2544 2501 2313 2382 2099 2349 2553 2532 2286 2530 2412 2030 1841 1628 1429 1475 1518 1397 1636 1842 2226 2447 2338 2165 2658 2624 2544 2357 2324 2455 2650 2702 2564 2402 2342 2017 1946 2244 2271 2302 2401 2420 2521 2649 2746 2713 2773 2963 2848 2901 2997 2667 2624 2446 2594 2992 2468 1695 2622 2036 2806 2246 2422 2559 2527 2447 2621 2633 2478 2376 2605 2455 2448
1812 1240 2081 1858 2000 2222 2081 2126 2198 2537 2651 2561 2521 2647 2351 2422 2530 2392 2686 2545 2149 2274 2122 1861 1827 1874 1608 1320 1319 1404 1610 1583 1763 2198 2282 1916 2102 2243 2555 2460 2494 2434 2384 2263 2582 2472 2524 2770 2578 2429 2236 2105 2470 2621 2627 2758 2727 2763 2675 2777 2906 2862 2954 2709 2855 3160 3108 2864 2813 3153 2867 3078 1720 2691 2287 2263 2381 2415 2582 2467 2562 2515 2574 2493 2756
1891 1870 1871 1879 2008 2191 1823 2180 2417 2616 2617 2635 2566 2342 2254 2257 2459 2657 2577 2464 2163 1961 1511 1728 1696 1633 1638 1422 1480 1575 1428 1702 1857 2006 1888 2057 2277 2172 2447 2504 2516 2508 2281 2382 2535 2276 2523 2732 2625 2671 2683 2722 2716 2616 2674 2608 2615 2549 2524 2636 2685 2880 2783 2704 2469 2508 2431 2930 2869 2903 2805 2810 2879 2797 2481 2421 2342 2034 2670 2573 2536 2540 2195 2202 2178
2164 2126 1607 2025 2087 1977 2318 2333 2551 2649 2662 2494 2332 2496 2389 2249 2682 2527 2458 1956 2178 2073 1658 1260 1590 1689 1619 1498 1519 1688 1733 1784 2157 2154 2038 1925 2159 2200 2200 2431 2406 2138 2308 2171 2430 2422 2420 2141 2430 2432 2461 2258 2181 2528 2523 2371 2322 2431 2545 2148 2836 3000 2932 2824 2623 2734 2895 3261 3100 2747 1565 2756 2925 2598 2718 2535 2572 2581 2385 2527 2422 2239 2255 2030 2440
1886 1062 1087 1757 1764 2262 2507 2542 2625 2592 2592 2536 2536 2346 2404 2406 2531 2362 2289 2262 2338 1665 1348 1369 1087 1170 1293 1669 1871 1949 1938 1957 1913 2060 2003 2071 2233 2375 2327 2254 2314 2257 2313 2166 2407 2402 2096 2316 2572 2436 2328 2387 2268 2233 2211 2119 2242 2348 2581 2757 2951 2897 2825 2803 2598 2320 3185 3347 3202 3156 2918 2722 2390 2499 2608 2464 2466 2010 2538 2341 2242 2276 2104 2023 2020
1626 949 984 1615 1858 2672 2508 2568 2605 2536 2581 2466 2484 2267 2448 2200 2048 2109 2161 2077 1808 1626 1450 1229 1005 1038 1338 1990 1902 2089 2193 2174 1818 2268 2059 1835 2266 2345 2287 2158 2353 2080 2063 2370 2335 2154 2126 2312 2370 2436 2334 2323 2274 2291 2281 2184 2296 2423 2495 2840 2766 2780 2818 2730 2812 2776 2871 2900 2702 2489 2005 2443 2459 2567 2627 2262 2102 2112 2510 2540 2566 2388 2266 2150 2090
1449 1897 2092 1902 2020 2718 2649 2458 2555 2438 2354 2282 2208 2218 2142 1907 2052 2032 2008 1970 1718 1518 1536 1443 1266 1280 1685 1641 1779 2053 1913 1997 2020 1952 2162 2020 1898 2041 2005 1881 2076 2128 2156 2132 2176 2390 2635 2638 2678 2748 2678 2384 2355 2276 2296 2288 2426 2357 2604 2887 2926 2847 2563 1991 1948 2224 2564 2949 2490 2272 2212 2122 2396 2304 2405 2154 2096 2194 2279 2264 2255 2239 2151 2087 2093
1354 1869 2033 2124 2953 2660 2564 2491 2537 2377 2241 2247 2157 1986 1767 1894 1990 1930 1935 2090 2094 1752 1636 1604 1439 1350 1674 1892 1742 1773 1878 1693 2064 1877 1857 1926 2009 2192 2121 2082 2338 2058 2092 2107 2376 2389 2546 2630 2831 2686 2472 2912 2836 2477 2443 2525 2509 2659 2871 2873 2792 2760 2599 2353 2677 2702 3042 3096 3032 2391 2121 2101 2087 2173 2166 2154 2216 2216 2193 2177 2103 2122 2054 1970 1970
1149 1568 1799 2040 2476 2575 2464 2417 2202 2172 2242 2184 1971 1975 1912 1864 1867 2117 1905 1833 1823 1712 1816 1652 1441 1374 1728 1967 1743 1709 1712 1648 1740 1778 1967 1998 2306 2204 2115 2220 2273 2104 2314 2183 2487 2480 2439 2699 2663 2754 3008 2855 2951 2706 2409 2490 2728 2860 2867 2756 2773 2866 2684 2352 3062 2970 3004 3351 3189 2824 2352 2222 2464 2516 2252 2182 2160 2125 2094 2154 2031 2081 1986 1992 1899
1102 1384 1849 2205 2075 2464 1974 2045 2040 2152 2052 1825 2016 2050 1902 1820 1956 2004 1874 1934 1620 1549 1852 1685 1680 1674 1693 1700 1756 1819 1915 1781 1696 1756 1900 2075 1891 2109 2104 2226 2274 2180 2160 2242 2336 2146 2320 2334 2371 2497 2734 3041 2784 2802 2572 2457 2434 2539 2661 2697 2752 2631 2458 1968 2079 2626 2617 2544 2933 2986 2700 2352 2531 2591 2238 2146 2186 2141 2009 2072 2094 1995 2002 2030 2094
1033 1541 1842 1076 2220 2290 1971 2027 1952 1604 1749 1557 1805 1942 1861 1842 1531 1788 1842 1572 1580 1574 1582 1644 1480 1199 1288 1608 1744 1626 1942 1772 1737 1931 2182 2244 2182 2063 2054 2114 2241 2057 2045 2092 2184 2276 2365 2192 2345 2532 2525 2681 2881 2769 2529 2530 2528 2770 2780 2525 2547 2353 1633 1503 1579 1908 1842 2348 2274 2045 2324 2595 2363 2220 2186 2111 2048 2109 2070 2124 1951 1940 1920 1872 1927
1377 1844 1998 1676 2183 2090 2186 1723 1516 1636 1316 1194 1295 1633 1748 1836 1869 1832 1755 1787 1524 1633 1571 1487 1598 1638 1591 1559 1713 1748 1691 1636 2051 2114 1965 2069 2031 1982 2024 2160 2122 2140 2271 2066 2322 2427 2497 2255 2495 2511 2389 2754 3124 3073 3036 2670 2582 2658 2679 2597 2500 2463 2139 1270 1365 1420 1464 1610 2107 2235 2005 2546 2339 2342 2317 2270 2210 2109 1875 1755 1807 1675 1654 1694 1751
1476 1949 2058 1919 2241 2297 1952 2218 1763 1638 1676 1778 1804 1850 1867 1958 1734 1954 2054 1968 1894 1770 1733 1796 1916 1810 1605 1667 1730 1789 1604 1843 2019 2035 2153 2082 2114 2195 2131 2162 2259 2276 2302 2286 2418 2456 2476 2733 2916 2848 2894 2985 2979 3048 2959 2887 2726 2601 2563 2484 2414 2202 2153 1234 947 784 1201 1637 1108 1567 1801 2107 2309 2224 2221 2265 2115 1958 1896 1846 1835 1760 1656 1537 1402
1773 2103 2192 2285 1995 1771 1935 2073 2154 2280 2154 1842 1823 1983 2096 2078 2000 1861 1918 1817 1729 1609 1408 1567 1563 1881 1869 1847 1793 1535 1673 1730 1977 2147 2063 2100 2161 2148 2247 2266 2199 2122 2245 2338 2228 2540 2720 2924 2916 2922 2847 2879 2833 2775 2992 2758 2832 2691 2522 2483 2486 2154 2042 2113 979 739 1068 1095 826 1057 1440 2364 2098 2133 2188 2262 2097 2053 2033 2063 1999 1964 1811 1784 1711
1818 1979 1988 2246 2350 2378 1773 1698 2479 2335 2269 2259 1803 2324 2005 2334 2236 1782 1789 1707 1729 1462 1441 1648 1718 1782 1674 1751 1911 1704 1989 1759 2067 2061 2048 1954 2082 2190 2306 2080 1972 1845 1795 2014 2191 2576 2733 2613 2618 2738 2766 2762 2692 2626 2824 2790 2865 2852 2643 2476 2298 2213 1865 2166 1045 1240 1315 898 1045 1158 1626 2319 2265 2185 2185 2226 2118 2090 1816 1733 1813 1820 1847 1851 1824
1818 1908 1993 2453 2347 2225 2307 2641 2484 2418 2316 2232 2271 2232 2230 2114 1940 1815 1839 1871 1743 1570 1588 1622 1668 1792 1848 1684 1822 1909 2127 1996 2152 2040 1754 1864 1843 1809 1820 1839 1510 1614 1744 1896 1975 2347 2673 2634 2640 2598 2686 2743 2712 2702 2811 2844 2824 2997 2682 2501 2299 1773 2276 834 1050 1067 877 1292 1265 1442 2467 2300 2210 2091 2162 2158 2128 1984 1961 2126 1870 1731 1838 1804 1900
1693 1951 2118 2185 2072 1929 1849 2098 1969 1990 2138 2644 2637 2342 2261 2015 2242 2140 2054 2154 1841 1946 1551 1805 1806 1829 1965 1881 1918 2197 2266 2317 2386 2151 1934 2059 1792 2100 2274 2129 1768 1595 1685 1805 1992 2426 2700 2825 2857 2876 2815 2902 3027 3054 2983 3020 2960 2919 2938 2623 2011 2555 1097 1211 1001 1208 1171 1458 1468 1647 2601 2499 2349 2160 2187 2187 2219 2108 2019 1896 1684 1514 1643 1754 1873
1836 2049 2140 2127 2066 2101 2265 2136 2246 2418 2172 2024 2042 2306 1987 2833 3107 2993 2792 2179 1786 1995 2301 2326 2260 2328 2002 2317 2622 1900 2256 2216 2124 2181 2124 2033 2051 1991 2070 2049 2043 1873 1950 1821 2124 2496 3118 3080 3029 3081 3157 3106 3222 2824 3238 3157 3049 3026 3016 2680 3187 1258 1418 1168 1256 1252 1351 1272 1699 2214 2662 2519 2528 2655 2333 2355 2398 2056 2248 2073 2182 2041 2290 2203 2072
1466 1998 2071 2231 2183 2084 2311 2319 2515 2290 2108 2133 1924 2482 3135 3142 2853 2697 2573 2055 1968 2356 2478 2068 2217 2524 2501 2402 2146 2195 2328 2386 2170 2103 2267 1998 1982 2268 2186 2167 1862 1706 1863 2119 2388 2989 3166 3038 3153 3155 3146 3128 3314 3000 2901 2583 3042 3193 3100 3667 1759 1348 1562 1438 1190 1274 1324 1652 1765 2789 2674 2601 2510 2694 2632 2388 2545 2499 2529 2500 2201 2319 2332 2270 2197
1061 1364 1961 1970 1872 1956 2472 2676 2764 2331 2216 1958 2216 2370 2551 2657 2528 2584 2528 2508 2511 2626 2571 2364 2425 2445 2518 2517 2533 2601 2355 2020 1818 1823 2008 2328 2415 2333 2419 2530 2553 2161 2146 2263 2780 2894 2980 2960 2986 2796 3006 2417 1625 1590 1596 1615 1823 2060 2450 2192 1464 1641 1384 1482 1210 1112 1270 1691 2005 2925 2666 2866 2659 2599 2701 2481 2347 2438 2493 2411 2255 2422 2313 2410 2440
1267 1320 1674 1792 1659 1814 2436 2781 2731 2201 2262 2065 2124 2159 2619 2563 2397 2360 2461 2602 2746 2666 2583 2633 2358 2466 2613 2524 2754 2747 2439 2184 2188 2669 2615 2803 2689 2302 2212 1949 2216 2234 2809 3162 2774 2614 2648 2233 2564 2992 1541 1605 1514 1640 1486 1681 1651 1631 1482 1688 1267 1476 1297 1273 1184 1325 1298 1750 2671 2750 2838 2893 2900 2784 2708 2706 2584 2532 2497 2627 2574 2426 2474 2531 2571
1107 1184 1552 1581 1426 1577 2059 2412 2556 2484 2278 2183 2050 2276 2300 2056 1969 2079 2265 2339 2560 2693 2524 2449 2331 2208 2155 2187 2458 2771 2676 2933 2721 2464 2425 2120 1922 1669 2017 2098 2228 2369 2427 2370 2270 2144 1671 1735 1827 1647 1273 1311 1256 1463 1566 1778 1706 1654 1300 1496 1298 1286 1178 1106 1164 1548 1503 1751 3255 2625 2761 2794 2833 2713 2580 2635 2532 2474 2528 2472 2501 2539 2605 2481 2418
1126 1182 1330 1509 1368 1611 1780 1949 2125 2564 2467 2352 1934 2062 1946 1821 1936 1931 2043 2020 2071 2291 2580 2761 2726 2568 2188 1913 1957 2017 1694 1719 1860 1856 1797 1788 1913 2128 2146 2245 2236 2200 2029 1990 2128 2231 2273 2380 2646 2516 2446 1529 1393 1756 1703 1642 1594 1410 1256 1256 1460 1278 1264 1147 1233 1520 1400 1584 3186 2536 2727 2945 2634 2627 2586 2643 2508 2448 2309 2377 2517 2434 2374 2490 2499
1094 1152 1261 1401 1563 1320 1678 1718 1791 1750 2026 2030 1942 1818 1862 1571 1460 1752 1987 2117 2138 2159 2126 2298 2653 2716 2537 2005 1251 1145 1116 1267 1598 1761 1829 1875 1885 1925 1881 1875 1996 2151 2334 2227 2380 2746 2930 2972 3113 3106 2881 2369 1754 1684 1505 1612 1429 1449 1456 1324 1426 1480 1372 1193 1257 1546 1365 1154 2273 2930 2982 2584 2632 2675 2579 2540 2511 2620 2568 2414 2576 2499 2278 2635 2489
907 1108 1125 1377 1350 1404 1652 1594 1780 1688 1641 1550 1564 1663 1677 1534 1558 1557 1848 2069 1925 2037 2168 2047 1899 1936 2142 1904 1239 982 967 1109 1280 1553 1835 1990 1922 1892 1932 2039 2286 2366 2516 2604 2883 2951 2937 2893 2948 2900 2822 2786 1965 1473 1352 1186 1285 1388 1460 1354 1214 1412 1442 1326 1506 1627 1202 1229 1462 3066 2814 2754 2786 2902 2778 2764 2630 2504 2472 2372 2494 2471 2464 2523 2432
758 997 1138 1371 1451 1324 1282 1435 1479 1579 1525 1444 1484 1587 1576 1676 1724 1760 1949 1758 1840 2029 1959 1741 1561 1649 1939 2133 1394 1134 1257 1467 1679 1655 1840 1872 1673 1928 2107 2282 2500 2578 2365 2711 3000 2830 2677 2668 3038 2994 2855 2715 2136 1785 1892 1198 1338 1111 1258 1260 1309 1266 1434 1578 1738 1840 1830 1472 1400 2481 2835 2957 2877 2999 3016 2981 2876 3026 3048 2987 2904 2882 2863 2979 3076
831 817 990 1222 1378 1301 1337 1423 1594 1728 1511 1430 1520 1639 1673 1636 1670 1619 1730 1617 1866 1759 1605 1420 1282 1192 1847 2333 2080 1847 1539 1521 1691 1688 1728 1782 1832 2118 2235 2406 2544 2618 2614 2660 2929 3071 3043 3082 3202 3225 2991 2980 2468 1936 1735 1378 1303 1280 1258 1289 1024 1146 1279 1518 1760 1859 1848 1899 2116 2274 3932 2934 2782 2798 3209 3179 3295 3264 3256 3313 3301 3312 3328 3391 3438
945 777 1022 1131 1170 1147 1239 1312 1440 1598 1595 1520 1670 1679 1622 1726 1759 1638 1608 1839 1651 1302 1338 1461 1502 1362 1597 2161 2237 2258 2264 2230 2084 1962 1941 2000 2144 2302 2613 2771 2801 3041 3115 3209 3165 3175 3362 3362 3198 3148 3300 3073 2352 1914 1814 1563 1604 1116 1183 906 1195 1353 1482 1831 1771 1515 1902 2362 2734 2553 2698 3706 3028 2911 2966 3197 3337 3472 3631 3613 3703 3865 3879 3896 3854
832 952 1147 1030 1131 1308 1355 1353 1450 1513 1651 1390 1484 1551 1620 1611 1687 1630 1699 1659 1519 1280 1222 1365 1572 1946 2108 2218 2568 2763 2960 2745 3074 2197 2300 2389 2521 2611 2763 3024 3263 3304 3252 3172 3119 3468 3471 3202 3233 3110 2899 2606 2016 1786 1781 1438 1262 1406 1378 1018 1229 1329 1491 1767 1870 2290 2186 2200 2489 2618 2527 2600 3267 3556 3069 3237 3069 3295 3272 3615 3965 4203 4386 4345 4246
949 1144 988 1107 1218 1444 1377 1465 1499 1510 1532 1601 1562 1674 1687 1717 1783 1578 1748 1554 1353 1358 1353 1509 1676 1756 2156 2460 2576 2898 3234 3216 2948 3087 2498 2515 2761 2902 2839 3098 3545 3602 3316 3651 3368 3320 3486 3421 3105 2575 2677 2379 1883 1917 1657 1543 1475 1524 1462 1214 1417 1669 1837 1819 2052 1811 2144 2139 2137 2513 2544 2737 3015 3060 3880 3636 3214 3306 3433 3604 3750 3896 3933 4178 4276
1168 1280 1151 1292 1199 1319 1257 1439 1625 1734 1643 1846 1711 1858 1924 1777 1981 1882 1807 1933 1496 1406 1113 1392 1638 1819 2062 2489 2845 2993 2957 2972 3058 2964 2696 2561 2574 2734 2916 3330 3688 3734 3354 3159 3520 3364 3468 3278 3091 2494 2505 2285 2044 1685 1808 1458 1562 1130 1577 1786 1717 1838 1954 1745 1820 1774 1917 2153 2272 2156 2381 2546 2568 2750 2782 2882 4388 3134 3689 3934 4052 4087 3906 3957 4102
1217 1356 1387 1365 1195 1295 1309 1338 1564 1685 2023 1884 2127 1984 2277 2688 2514 2437 2025 2407 1920 1666 1534 1563 1868 2110 2267 2590 2958 3091 3093 2995 2766 2889 2599 2683 2553 2751 3120 3411 3764 3578 3251 3188 3653 3373 3512 3210 3391 2993 2798 2061 1857 1614 1544 1482 1344 1290 1402 1664 1663 1763 1884 1878 1827 1848 1596 1839 2081 2212 2343 2428 2555 2486 2301 2647 2479 4886 3391 3815 3666 3724 3705 4140 4224
1201 1353 1680 1600 1489 1396 1368 1211 1240 1498 1874 1884 2278 2549 2577 2690 2655 2335 2051 2432 1891 1772 1890 1954 2004 2342 2560 2771 2911 3152 3068 2974 2828 2954 2876 2743 2631 2687 3135 3472 3643 3550 3858 3662 3326 3226 3216 2700 3653 3536 3117 2280 1606 1615 1473 1354 1156 1226 1339 1485 1677 1694 2081 1864 1829 1529 1684 2038 2259 1915 1972 2287 2166 2512 3524 2584 2579 2576 4252 3293 3904 3532 3620 3868 4046
1367 1569 1647 1605 1352 1204 1228 1280 1534 1394 2142 2220 2423 2278 2508 2697 2738 2619 2696 2379 2111 1781 1897 2077 2247 2325 2489 2773 2838 3066 2800 2910 3184 3501 3386 2893 2985 3100 3142 3253 3436 3791 3896 3382 3444 3193 3322 2869 3460 3336 3122 2284 1650 1597 1420 1284 963 1009 1162 1363 1487 1883 1650 1870 1596 1644 1908 1959 2006 2005 1938 1940 2108 2239 2275 2379 2227 2715 2932 4065 2794 3102 3344 3660 3565
971 1480 1514 1676 1829 1311 1501 1701 1604 1665 1764 2458 2386 2577 2647 2888 2644 2748 2672 2761 2555 2297 2143 2188 2150 2106 2366 2536 2873 2942 2658 2896 3343 3443 3722 3134 3010 3068 3246 3028 3240 3431 3756 3100 3213 3417 3683 3283 3235 3523 3198 2164 2023 1710 1647 1552 1174 1328 1274 1383 1514 1665 1694 1458 1820 1828 1822 1449 1361 1747 1555 1986 1767 2358 2654 2619 2124 2639 2941 3115 3220 3259 5186 3238 4104
1067 1543 1714 1846 1904 1689 1975 1955 1853 1930 1859 2390 2332 2500 2386 2450 2416 2528 2556 2659 2547 2357 2424 2390 2298 2337 2220 2533 2747 3124 2758 2891 3059 3207 3437 3361 3304 3097 3187 3313 3099 3544 3762 3495 3590 3669 3553 3378 3325 3280 2760 2212 1796 1719 1465 1709 1423 1538 1583 1583 1448 1730 1985 1720 1920 1747 1628 1659 1575 1546 1313 1469 1767 1860 1951 1952 2114 2073 2599 3052 3423 2865 3287 4215 3313
1328 1696 1844 2008 2247 1970 2296 1936 1887 2220 1950 2346 2382 2434 2374 2645 2560 2069 2108 2270 2546 2511 2363 2419 2368 2619 2862 2966 2698 2712 3004 2950 3172 3700 3439 3122 3421 3284 3295 3307 3251 3369 3802 3777 3630 3670 3539 3174 3360 3357 2554 2149 1804 1753 1665 1831 1863 1604 1917 1630 1666 1785 1682 2023 1760 1461 1312 1037 1236 1651 1261 1198 1538 1705 1892 1859 2251 2239 2476 2743 2845 2936 2944 3767 5298
1422 1761 2157 2070 2060 2133 2093 1891 1956 2128 2265 2336 2511 2673 2722 2554 2410 2180 1763 1840 2082 2110 2288 2309 2430 2593 3060 2904 3195 3157 2976 3280 3529 3798 3952 3894 3372 3161 3372 3411 3152 3425 3573 3426 3612 3301 3301 3232 3106 3334 2399 1982 1781 1862 1923 2161 1570 1673 1709 1419 1535 1626 1800 1703 1602 879 931 825 686 940 1090 1106 846 1306 1180 2072 2358 2653 1951 2322 2430 2688 3197 3256 3224
1300 1654 1996 1958 1953 2129 2255 2246 1866 1886 2109 2413 2570 2646 2722 2577 2143 1876 1828 1614 1938 2045 2042 2280 2317 2493 2549 2993 3331 3354 3315 3704 3883 3768 3993 3620 3479 3497 3468 3539 3374 3318 3579 3802 3528 3477 3264 3138 3515 2960 2712 2165 1927 1815 2300 2474 1622 1600 1983 1786 1598 1497 1695 1564 1236 1022 963 992 1053 383 877 1179 771 972 1328 1635 1841 1635 1814 2227 2542 3144 3525 3485 3315
1410 1401 1686 1876 1742 2078 2400 2541 2276 1732 1928 2023 2222 2055 2207 2738 2910 2977 2680 2247 2000 2192 2269 2099 2612 2551 2426 2408 2996 3026 3105 3358 3436 3429 3512 3532 3391 3273 3264 3275 3392 3450 3359 3550 3414 3420 3556 3571 3470 3156 2708 2242 1967 2013 1978 2356 2526 2460 1642 1788 1754 1761 1466 1702 1882 1377 1009 823 992 598 919 1018 673 952 1634 1456 1096 1799 1975 2295 2596 3509 3430 3577 3615
1207 1320 1487 1493 1408 1937 2521 2747 2547 1853 2062 2317 2134 2106 2272 2666 2770 2715 2968 2522 2286 2378 2241 1964 2217 2426 2411 2394 2701 2929 3013 3580 3479 3642 3543 3665 3544 3582 3274 3336 3547 3535 3288 3321 3437 3268 2805 3452 3216 3305 2833 2637 2265 2304 1899 2173 2536 2929 2522 2206 1313 1981 1999 1704 1720 1424 1640 1230 837 640 870 1308 880 1454 815 1098 1223 1005 1446 2342 3033 3196 3629 3670 3587
1250 1375 1323 1168 1205 1790 2410 2746 2560 2296 1916 2261 2186 2356 2335 2548 2840 2940 2729 2690 2848 2128 2003 2234 2280 1838 2240 2235 2723 2490 2850 3455 3706 3922 3727 3520 3651 3481 3267 3294 3630 3387 3291 3699 3471 2819 2654 3554 3203 3323 3141 2686 2676 2553 2243 2067 2227 2681 2677 1956 2429 2387 2260 2026 2267 1889 1333 1303 1370 753 769 1268 942 885 1217 936 694 541 1188 1279 2636 2907 3072 3328 3548
1247 1252 1331 1166 1111 1871 2409 2593 2778 2515 2070 2335 2267 2425 2700 2711 2784 2532 2391 2560 2516 2326 2670 2401 2225 2116 2586 2399 2774 2786 3094 3158 3155 3446 3854 3852 3548 3398 3370 3230 3225 3533 3318 3300 3430 2939 2695 3068 3089 3353 3126 2956 2806 2607 2534 2253 2373 2428 2047 1936 2091 2035 1926 2154 2132 2039 2085 1755 1600 1287 881 1076 903 890 779 923 1116 782 1372 1450 1596 1116 2876 3212 3287
915 1091 1204 1228 1283 2097 2619 2557 2730 2542 2338 2464 2439 2283 2596 2774 2839 2639 2508 2628 2156 2549 2514 2568 2617 2729 2493 2608 2647 2883 2822 3043 3112 3105 3675 3574 3286 3602 3530 3265 3337 3618 3015 3171 3036 2648 2649 3182 3215 3521 3543 3325 2968 2663 2589 2479 2789 2165 2307 2351 2117 2128 2344 2094 2117 2140 2121 2154 1445 1124 1167 977 1001 582 730 729 935 988 954 1436 1012 1271 1254 2282 2914
649 862 1259 1209 1380 2021 2728 2652 2764 2826 2632 2614 2488 2230 2416 2832 2909 2829 2889 2568 2435 2535 2583 2458 2841 2519 2916 2832 3053 2977 3092 3056 2914 3284 3140 3247 2967 3601 3433 3283 3430 3305 2810 3045 2393 2576 2936 3219 3432 3732 3584 3388 3047 2826 3034 2706 2857 2829 2874 2904 2596 2234 1859 1819 2099 2163 2047 2094 1584 1760 1833 1236 1097 1243 1146 1047 744 695 811 1062 1314 1464 1314 1278 1662
505 727 950 1195 1390 1903 2434 2662 2934 2803 2798 2909 2486 2414 2443 2727 2900 2948 2943 2772 2611 2898 2609 2868 3060 2881 3001 3176 3356 3450 2988 2951 3247 3032 3388 3122 3460 3563 3532 3492 3381 3054 2708 3349 2641 2718 3212 3450 3268 3347 3510 3153 3248 3188 3210 2886 2526 2851 2932 2867 3098 2673 2522 2212 2030 1884 1984 2040 1607 1812 1569 1568 2085 1084 1810 1199 920 837 894 849 1035 1012 1063 1705 1371
499 553 683 1018 1406 1469 2032 2511 2897 2691 2830 3056 2539 2612 2485 2520 2703 3031 3012 3049 2827 2895 2707 2865 3048 3267 2989 2900 3246 3444 3226 3029 2916 2951 3036 3184 3501 3633 3585 3390 3642 3300 2891 2934 3070 2482 2764 2920 2970 3354 3412 3412 3195 3644 2981 2729 2774 2846 2824 2850 2670 2208 2506 2590 2497 2421 2076 2006 2157 1762 1791 1514 1647 1559 1481 1420 1246 1184 1377 1755 1281 1081 777 1212 2258
Wind_Speed
8 6 5 3 8 8 8 12 15 6 3 3 3 3 3 4 5 7 7 6 5 4 3 3 4 5 5 7 12 12 8 8 6 5 5 3 7 9 9 7 8 8 7 9 11 12 12 12 11 11 12 12 12 12 12 11 11 11 11 10 9 8 8 7 8 8 8 8 9 9 10 10 9 10 10 10 10 10 9 8 6 8 6 8 9
6 4 4 4 7 8 12 13 7 2 3 3 3 4 4 4 4 4 5 5 5 4 3 5 5 6 6 10 12 5 4 6 6 6 2 0 6 9 9 8 9 12 10 11 13 12 12 12 11 11 10 11 12 12 12 11 12 11 12 11 10 9 8 8 8 7 9 10 12 13 13 14 14 13 12 12 14 14 14 12 11 6 6 8 8
4 2 3 3 8 10 12 9 3 2 4 4 4 5 5 5 5 4 4 4 4 6 6 7 8 7 11 13 7 3 6 7 4 8 7 4 7 7 8 10 10 12 13 13 13 12 12 11 11 10 9 10 11 11 11 11 11 11 11 11 9 9 9 7 8 9 9 10 10 11 12 15 15 14 14 14 15 15 13 11 10 9 6 8 6
3 2 3 4 8 10 10 9 8 4 2 3 4 4 5 6 5 4 2 4 7 8 9 10 12 16 11 5 7 8 8 6 6 7 7 7 8 7 9 11 10 13 13 13 13 13 12 10 11 9 8 9 10 10 10 10 10 10 9 9 9 9 8 7 7 8 7 7 8 6 9 11 13 14 13 14 13 13 12 12 12 10 9 8 7
4 3 3 4 5 8 10 7 8 10 3 2 3 4 4 4 3 2 3 2 3 8 11 13 12 8 4 4 9 11 6 5 7 7 7 8 9 9 9 11 12 12 13 13 13 14 12 11 11 9 8 9 10 10 10 10 10 8 9 8 9 8 8 7 7 8 7 5 5 8 7 8 9 13 12 11 10 11 10 11 9 9 8 7 7
4 2 2 3 5 5 10 8 13 6 4 3 4 4 5 4 3 3 3 4 5 6 10 13 11 1 5 4 11 11 6 5 7 8 6 8 9 10 10 11 11 12 13 13 14 14 13 12 10 8 8 9 10 11 10 10 9 8 9 9 8 8 8 7 6 3 3 3 4 5 8 7 8 10 12 11 10 9 7 7 7 7 7 7 7
5 3 4 4 5 5 10 10 7 6 5 4 5 5 4 1 1 2 4 4 4 9 14 13 3 5 4 8 11 13 8 8 9 8 7 8 8 9 9 11 10 11 13 13 13 14 13 9 9 8 8 9 9 9 10 9 9 9 9 8 7 8 7 6 5 5 5 5 7 6 8 8 7 8 11 9 8 7 5 6 6 7 8 9 9
6 6 9 5 4 5 10 7 8 8 7 5 5 6 4 4 4 4 5 4 5 10 21 11 3 2 7 11 11 10 10 10 10 9 8 9 9 8 9 10 10 10 11 11 12 13 11 9 9 9 9 9 9 8 9 9 10 9 8 7 7 7 6 6 5 5 4 7 8 9 6 9 8 7 7 7 6 6 5 5 5 6 7 10 6
6 0 8 9 4 4 6 8 9 7 5 5 5 4 5 5 6 6 4 4 6 16 19 10 6 2 7 10 10 9 10 10 9 8 7 8 7 7 7 8 9 10 10 10 11 11 10 8 9 11 10 9 9 8 8 9 10 9 8 7 6 6 5 3 3 1 4 6 6 7 6 4 5 5 6 6 5 4 6 8 7 7 7 6 7
7 6 8 10 4 4 9 10 9 6 5 5 5 4 5 5 5 5 5 5 8 16 21 9 6 2 5 5 6 9 10 7 6 5 5 6 6 4 6 8 9 9 10 9 9 6 8 10 11 10 9 9 8 8 8 9 9 8 7 7 6 5 5 4 4 5 4 4 5 7 7 6 6 7 6 7 8 10 11 12 12 11 8 7 7
7 6 4 3 3 8 10 9 5 5 6 6 5 5 4 3 3 3 4 7 11 16 15 7 5 6 5 4 5 5 6 4 2 2 2 3 4 4 5 6 7 8 8 8 7 8 9 10 10 10 10 10 9 9 8 9 8 8 7 7 6 7 6 5 5 4 5 5 6 6 6 7 8 8 7 10 11 11 11 11 10 9 8 7 6
7 6 5 4 6 10 8 5 6 6 6 6 7 7 5 5 4 4 6 8 12 15 12 7 6 7 7 7 7 4 3 4 3 3 2 1 1 3 3 4 5 5 6 6 6 6 8 8 8 8 9 11 12 11 10 9 8 7 7 7 7 7 6 6 5 5 5 7 8 9 8 9 9 10 10 11 11 11 11 10 9 8 7 6 5
7 7 6 6 7 7 6 7 7 6 6 7 6 6 6 4 5 5 6 8 11 11 9 5 6 8 7 5 4 3 4 4 4 3 3 2 1 1 2 2 2 3 3 4 4 4 5 5 5 7 10 10 12 13 11 9 7 6 6 6 5 6 7 8 7 7 7 9 10 11 11 12 12 14 13 12 12 11 11 10 9 8 7 6 4
8 7 7 7 7 3 5 7 7 7 6 6 7 6 5 6 7 6 6 7 12 8 6 8 6 5 5 3 2 2 4 5 4 3 3 3 2 1 0 1 1 2 2 3 3 3 4 4 4 6 8 10 12 13 10 8 6 5 4 4 4 6 6 7 8 9 9 11 12 13 13 14 14 15 13 12 11 11 10 8 7 7 6 5 5
7 6 7 7 8 6 3 7 6 6 6 5 5 5 5 5 5 5 5 7 12 5 6 5 4 3 3 3 1 1 6 6 4 2 2 3 2 1 2 2 2 2 1 1 2 4 4 5 6 5 6 9 11 11 10 8 5 3 2 4 7 11 16 11 12 12 13 14 15 15 13 14 14 14 13 11 10 9 9 8 7 7 7 7 7
6 6 7 8 10 6 7 8 7 6 5 4 4 4 3 3 3 3 5 8 9 8 5 5 6 5 4 2 1 1 5 6 4 4 3 3 3 2 2 2 2 2 2 2 2 2 3 4 5 7 8 10 12 12 12 9 5 3 3 5 9 13 16 16 14 15 16 16 16 15 14 13 13 12 11 9 8 7 7 6 6 7 7 8 9
7 8 9 9 8 7 7 9 7 5 4 3 3 3 2 1 2 4 7 8 10 7 5 5 7 6 5 4 2 3 4 4 6 3 3 4 3 3 3 2 1 1 2 2 2 2 4 6 7 9 11 12 11 11 11 9 5 5 6 8 11 15 19 23 15 16 16 16 16 15 12 11 11 10 9 8 7 7 7 7 8 9 10 11 11
7 8 10 11 9 6 6 7 6 5 6 4 3 3 3 3 2 5 7 6 9 7 2 2 4 5 3 3 3 3 3 4 5 2 1 2 2 3 2 2 1 2 3 3 3 5 6 8 9 10 11 11 10 9 11 8 6 8 9 11 14 17 20 28 15 16 15 16 14 13 11 10 9 9 8 8 8 8 9 10 11 12 13 13 14
7 9 10 12 11 9 5 7 7 7 8 8 7 5 2 2 3 6 5 6 9 7 3 4 7 3 2 3 3 3 3 2 3 2 1 1 1 1 1 2 2 2 3 4 7 7 7 7 9 11 12 11 10 10 12 11 10 11 12 14 15 18 22 23 15 14 14 13 13 10 9 9 9 9 9 9 10 10 12 13 14 15 16 16 17
8 9 11 13 13 11 9 9 8 7 8 7 6 5 3 2 3 6 8 6 6 5 5 4 7 5 3 3 3 2 1 2 2 3 2 3 4 2 2 1 1 2 4 6 7 7 7 8 10 11 11 11 11 12 14 13 12 13 14 14 17 21 21 15 15 15 13 12 12 9 8 9 10 11 12 12 13 14 15 15 17 18 19 20 20
9 9 12 15 14 13 11 11 9 8 6 6 7 5 4 0 3 6 6 5 6 6 6 4 5 5 3 3 3 3 3 4 5 4 4 5 2 3 3 2 3 4 7 8 10 10 9 10 12 12 13 14 13 13 14 14 15 14 14 16 18 22 16 17 15 14 13 12 11 9 10 10 13 14 14 15 15 16 17 18 19 20 21 21 22
8 9 11 14 15 15 13 12 12 10 8 8 8 7 4 5 3 3 2 2 2 2 3 3 1 1 2 4 7 5 4 4 5 4 4 5 5 4 3 4 4 7 9 11 16 16 14 14 15 16 15 14 15 15 16 15 15 15 16 18 21 17 18 16 16 14 14 12 11 9 11 12 13 16 16 16 18 19 20 21 22 23 24 24 23
7 9 11 13 15 15 14 13 12 11 9 9 9 7 6 5 3 3 3 3 3 3 5 5 3 1 1 3 7 6 4 5 6 6 6 6 6 7 8 9 7 6 9 17 22 17 18 17 17 20 19 19 20 16 18 15 14 15 18 19 16 17 17 17 15 14 14 13 11 8 11 13 15 17 19 19 20 22 24 24 25 25 25 25 24
8 9 10 13 14 14 13 14 13 12 11 10 9 9 7 6 5 5 4 4 4 4 5 7 6 3 2 3 4 4 2 3 3 6 6 8 8 8 10 11 12 15 16 17 18 18 18 19 20 20 23 19 18 15 15 15 14 14 16 16 15 16 17 16 15 14 14 13 10 8 12 15 17 19 20 22 22 24 24 26 26 26 26 26 25
9 9 11 12 12 12 13 13 13 13 11 11 10 10 9 8 6 5 5 5 5 3 4 5 7 5 4 3 2 4 4 5 7 9 9 9 10 10 13 14 15 16 21 17 18 18 21 18 19 23 17 16 15 15 15 14 16 15 17 17 15 16 16 15 14 16 14 12 9 10 14 17 19 21 21 23 26 26 25 26 28 28 27 27 26
9 10 10 11 11 12 12 12 12 12 12 11 11 10 9 8 7 6 5 5 4 3 4 5 6 7 7 4 3 4 4 6 7 8 9 10 10 10 11 13 14 15 18 16 17 18 16 17 17 17 18 15 15 16 15 17 14 15 14 16 14 15 16 15 14 15 14 14 10 12 16 18 20 23 25 26 26 27 27 27 27 28 28 28 27
9 8 9 10 11 11 11 11 11 11 11 11 10 10 10 9 8 7 5 5 5 4 3 4 6 7 7 7 6 5 4 5 7 8 9 10 10 11 11 13 14 15 16 16 16 17 17 17 18 18 19 19 15 15 16 16 16 14 13 14 15 14 15 14 14 15 14 15 10 13 16 20 22 25 28 28 28 28 28 28 28 28 28 28 28
8 7 8 9 10 9 10 10 10 10 10 10 10 10 10 9 8 7 7 6 5 4 3 3 4 7 8 8 7 5 5 5 6 7 9 10 10 11 12 13 13 14 16 16 16 17 17 18 19 19 19 20 18 18 15 13 13 15 11 12 14 12 15 14 14 16 15 14 14 14 18 21 24 27 28 28 29 29 29 29 29 29 29 29 28
6 7 8 8 8 9 10 9 9 9 10 10 10 10 11 10 9 8 8 8 6 5 4 2 3 5 6 7 8 7 6 5 4 4 6 7 10 12 12 13 13 14 15 15 16 17 18 20 20 19 19 18 18 15 16 14 13 12 13 11 11 11 14 14 14 15 14 14 15 13 19 22 26 28 28 29 30 30 29 29 29 28 28 28 27
5 6 7 7 7 8 9 9 10 10 10 10 10 10 10 10 10 9 9 9 8 7 4 4 4 4 6 9 9 8 8 7 6 5 5 6 8 10 12 12 13 15 15 16 18 19 19 20 21 20 18 17 17 17 19 16 13 12 14 11 14 11 13 13 14 14 13 13 14 14 19 22 26 27 29 30 30 30 30 30 29 29 29 29 28
5 5 6 7 8 8 9 10 10 11 11 10 10 10 10 9 9 8 8 7 6 6 6 5 4 4 5 6 7 8 7 6 6 6 6 7 8 10 12 12 14 15 17 16 18 20 21 22 21 21 18 17 18 17 18 14 14 12 13 12 12 13 13 15 14 14 11 13 14 17 17 22 26 28 29 29 30 30 29 29 29 28 29 29 29
5 6 7 7 7 7 8 9 10 12 12 9 10 10 10 9 9 9 8 7 7 6 5 4 4 3 2 4 6 7 7 7 7 8 8 9 10 11 12 13 14 14 16 17 18 18 19 20 20 19 19 18 18 17 18 15 14 12 12 12 13 14 14 15 14 11 12 12 15 17 18 19 24 27 28 29 29 29 28 29 28 29 28 29 29
7 7 7 8 6 7 8 9 9 11 11 9 10 11 11 10 10 9 9 8 8 7 5 4 4 4 4 4 4 5 6 7 8 9 9 10 11 11 11 12 13 14 15 15 16 17 17 17 18 18 18 16 17 17 17 13 13 15 14 12 14 14 13 13 13 14 12 13 14 17 18 20 19 22 26 27 28 28 28 28 28 28 28 28 28
7 8 7 7 8 9 9 9 9 10 11 10 11 11 11 10 11 10 10 11 9 8 7 6 6 5 5 4 4 6 6 7 8 9 10 9 10 11 11 11 12 14 14 16 15 15 15 17 17 16 17 17 16 17 16 15 13 13 13 13 14 14 14 12 13 11 15 14 15 17 18 18 19 18 18 23 24 26 27 27 27 27 26 27 27
8 7 6 7 7 8 10 9 10 9 11 10 11 10 10 10 10 10 11 12 11 10 8 7 7 7 6 6 6 6 6 7 8 9 10 9 9 9 9 10 12 14 13 13 15 13 15 15 16 17 16 16 15 16 17 15 13 12 14 16 15 13 14 11 13 13 13 14 17 17 18 19 18 18 17 16 19 23 22 24 25 25 25 25 26
6 6 6 7 7 7 10 8 9 10 10 10 10 10 11 12 11 12 10 12 11 11 10 8 8 8 8 7 7 7 7 7 7 9 8 9 8 7 8 9 11 12 12 13 15 12 13 14 16 16 14 17 16 14 15 15 15 13 13 14 13 14 12 12 13 15 12 16 16 17 18 17 18 16 17 16 15 12 20 21 22 23 23 23 23
5 4 5 6 6 6 11 8 8 9 9 8 9 10 11 11 11 10 9 11 10 10 11 10 9 8 8 7 7 7 7 7 7 8 8 7 7 6 6 7 9 10 12 12 11 12 14 10 13 15 15 16 16 15 14 14 13 14 13 12 12 13 13 12 13 13 13 15 16 15 16 15 15 15 14 12 13 12 15 18 20 20 21 21 20
4 4 4 5 6 6 9 9 7 8 8 8 9 10 10 11 11 10 10 10 10 9 9 10 10 7 7 6 6 7 6 7 7 8 9 7 7 7 5 6 7 9 10 9 10 11 12 13 12 14 15 16 16 17 16 16 15 14 14 12 13 13 11 12 11 14 13 14 14 14 16 16 15 13 12 12 11 11 11 14 17 19 18 17 17
5 4 5 5 6 6 7 7 8 8 7 8 9 10 9 11 10 10 8 10 10 10 9 9 8 8 6 5 6 6 5 6 7 8 8 7 6 5 5 7 6 7 9 9 8 9 13 13 15 13 15 15 16 16 17 18 15 17 13 12 11 11 12 11 12 13 15 16 15 14 12 14 14 11 9 10 9 9 10 11 9 9 10 14 13
5 4 4 5 5 5 5 6 8 7 6 7 8 9 9 8 8 8 8 9 9 8 9 8 8 8 5 5 6 6 5 6 7 7 8 8 8 6 6 7 7 7 8 8 8 9 11 13 14 16 15 13 13 15 16 17 14 15 15 13 11 10 11 11 12 12 13 13 13 17 15 11 12 12 10 8 9 9 8 8 9 7 6 9 12
5 4 4 3 4 5 4 5 6 6 7 7 7 8 7 8 7 8 7 6 8 8 9 8 7 6 6 6 7 5 5 6 6 7 7 8 9 8 8 8 8 7 8 7 8 9 11 13 11 15 15 14 14 15 15 16 15 11 13 12 9 10 7 10 13 11 11 12 12 14 15 14 11 9 9 9 9 9 6 6 6 5 5 6 10
5 4 4 3 4 4 4 4 5 5 6 6 6 7 7 7 7 7 6 4 5 7 6 8 7 4 5 6 7 5 5 6 6 6 7 8 8 9 9 8 9 8 8 8 8 9 10 11 12 12 12 14 13 17 17 18 12 13 12 10 9 10 10 11 11 10 9 8 7 8 12 14 12 11 10 8 7 7 5 4 5 2 4 4 5
4 3 3 3 3 4 4 4 5 4 5 5 4 5 6 7 8 7 7 4 5 6 4 5 5 3 3 5 5 5 6 5 6 6 6 7 7 8 8 7 9 8 9 9 8 9 10 11 11 12 14 10 12 14 15 21 14 11 12 12 10 6 8 9 11 11 12 8 8 11 14 13 16 15 14 9 8 8 7 5 3 3 2 4 4
6 5 4 2 4 5 4 3 3 4 3 3 4 3 4 5 7 9 8 8 4 4 4 3 4 3 2 2 3 4 5 5 4 5 4 5 6 7 7 7 7 7 8 8 8 8 9 10 11 10 13 13 12 14 16 15 18 16 11 13 11 11 6 9 8 10 9 12 13 14 12 9 13 10 10 11 12 11 7 5 3 1 2 2 3
7 6 5 3 4 2 3 2 3 2 2 1 3 3 3 4 6 6 5 5 4 3 3 2 2 2 2 2 1 3 3 4 3 3 4 3 4 6 6 6 6 7 7 7 7 7 9 8 10 10 12 15 14 13 15 16 15 17 15 13 8 10 12 10 9 12 12 8 9 6 6 10 10 9 9 10 6 9 7 5 3 1 2 3 4
8 7 5 4 3 3 3 3 4 3 1 1 3 3 4 4 5 5 4 4 3 3 2 2 1 1 1 1 1 2 1 2 2 3 3 3 2 3 5 5 4 4 6 7 6 6 7 9 8 11 9 11 15 15 14 13 15 13 12 13 15 15 12 13 11 7 12 13 7 10 10 8 3 5 7 7 9 13 11 4 2 3 2 0 1
9 8 7 6 4 5 4 3 4 4 2 1 2 3 3 4 4 4 5 4 4 5 5 5 3 2 3 3 2 2 0 1 0 1 2 3 2 2 3 4 4 3 4 5 6 8 5 7 9 9 11 12 13 13 15 13 15 14 15 15 14 15 13 12 11 8 7 9 11 6 5 8 12 12 10 9 8 9 10 6 10 8 4 4 4
11 10 8 8 6 6 6 4 5 4 3 1 1 2 3 4 4 5 4 4 4 6 5 5 5 5 4 3 3 4 3 2 2 2 2 2 2 2 2 3 3 4 4 5 6 7 7 7 9 9 10 11 12 14 16 16 13 13 16 17 13 13 12 12 13 12 11 7 5 11 9 8 10 11 11 10 9 10 3 9 1 6 10 7 7
11 12 11 10 9 7 7 6 5 4 4 1 0 0 2 3 3 4 4 4 4 5 5 5 5 4 5 5 4 5 5 4 3 3 1 3 2 2 3 3 3 3 4 4 5 4 5 7 7 8 9 10 12 13 14 14 17 14 14 15 16 14 11 10 9 11 11 11 8 6 9 8 8 6 8 9 9 11 11 5 5 6 5 4 4
13 13 12 11 10 9 8 8 7 5 5 2 1 2 1 2 2 3 2 3 4 6 6 6 5 5 4 5 6 5 4 5 4 3 3 2 2 3 2 3 3 3 5 6 6 5 5 5 7 8 10 11 12 12 13 13 14 16 14 14 14 13 12 9 8 9 8 8 8 9 8 7 3 8 6 11 10 8 7 7 5 9 7 4 3
14 14 14 13 11 10 9 9 8 7 6 4 3 3 2 1 3 2 2 3 4 5 6 6 6 5 5 5 6 6 6 6 5 5 3 3 4 4 3 3 4 4 4 3 4 4 3 4 5 7 8 10 11 13 13 12 12 13 13 11 12 11 11 11 10 10 9 7 9 9 7 9 11 8 8 7 2 8 5 3 3 10 4 7 4
Wind_Direction
83 92 93 81 77 88 98 90 89 82 120 146 156 162 183 188 186 170 161 158 151 137 157 192 216 229 227 229 216 212 224 262 235 163 192 273 286 288 293 290 297 289 278 292 288 289 285 284 284 279 275 268 260 250 248 250 241 227 213 209 215 228 237 244 249 250 246 243 234 220 210 209 208 200 195 199 199 192 184 180 172 209 193 210 226
47 81 89 89 100 102 98 100 79 80 123 140 154 158 162 169 163 152 140 130 128 140 177 198 210 223 233 225 232 213 217 255 299 297 249 273 266 263 273 285 288 297 311 299 289 287 283 279 278 275 268 263 256 249 245 235 228 221 214 210 214 220 228 228 236 241 236 232 227 217 211 203 201 202 200 197 201 203 198 188 191 203 194 222 216
53 44 84 101 92 98 103 106 110 142 149 149 148 148 153 149 143 125 119 118 127 155 175 190 205 225 231 239 281 293 219 241 277 300 319 287 264 264 266 273 280 291 299 287 283 281 279 275 272 266 261 258 253 249 240 225 221 217 213 211 213 216 219 225 229 229 225 231 231 222 219 208 201 200 199 200 202 206 208 202 201 210 200 225 219
51 52 55 44 74 89 97 120 136 121 105 124 138 136 136 129 121 134 125 160 159 171 177 191 211 219 225 269 274 273 262 263 278 297 307 281 264 258 272 274 277 281 278 278 280 278 271 273 272 266 260 255 252 247 237 229 222 216 217 217 218 216 220 227 233 231 217 200 211 200 184 184 187 203 204 201 205 206 208 209 211 215 225 216 210
38 51 53 42 58 87 100 117 111 93 77 79 104 115 107 90 80 98 152 166 180 207 210 213 227 247 289 315 292 268 263 278 284 275 272 279 279 278 270 275 275 277 280 272 275 276 278 276 271 261 256 254 250 246 239 234 232 223 220 219 222 224 229 238 243 236 221 189 215 189 182 194 176 199 205 209 215 215 215 217 215 213 213 210 200
51 37 54 71 91 87 91 80 76 78 86 92 102 101 99 116 164 164 166 180 209 239 247 231 205 213 343 316 277 284 292 275 280 264 249 263 276 281 285 280 277 279 277 278 280 279 272 261 262 256 248 250 247 242 240 236 233 227 225 225 222 223 227 233 235 220 208 194 206 181 190 190 192 177 203 210 211 217 226 216 210 199 194 192 193
48 62 36 54 80 93 86 87 97 99 100 103 102 103 105 95 113 187 192 192 223 258 252 237 213 68 283 269 270 285 300 292 280 274 284 282 272 275 280 281 281 281 276 277 276 273 273 265 258 257 259 253 247 242 240 234 233 226 226 231 233 232 231 225 220 200 125 119 180 183 182 195 191 176 202 210 213 203 201 216 187 184 172 163 157
71 122 157 114 117 94 95 106 104 99 95 105 119 138 139 159 190 199 199 208 233 255 264 264 68 40 277 271 281 295 298 291 284 281 273 276 281 275 272 276 282 282 278 276 270 265 261 257 254 251 245 244 238 234 234 228 226 225 231 228 223 223 221 221 222 181 168 185 176 184 187 175 187 180 195 203 200 176 175 163 157 167 166 143 142
52 193 112 117 113 110 101 94 89 88 98 98 111 129 158 173 196 212 219 230 249 257 266 301 30 25 262 276 295 303 297 289 282 277 269 264 263 271 276 276 277 275 266 260 253 251 253 240 234 236 239 238 234 227 221 221 218 217 218 219 216 209 208 206 238 6 167 175 180 177 182 172 180 177 170 178 159 147 136 145 146 170 168 145 158
47 20 20 54 50 62 73 80 87 88 82 89 100 132 167 175 192 202 209 235 255 263 275 307 19 307 275 291 305 303 306 293 284 278 258 263 264 270 277 272 270 266 257 250 249 256 242 230 228 224 231 231 225 219 212 209 210 211 210 216 213 199 195 205 216 203 185 184 182 179 174 170 172 167 166 165 167 162 162 166 164 159 152 168 174
36 57 65 44 33 60 68 81 108 117 116 125 133 153 163 182 218 241 245 242 246 264 282 318 11 319 322 330 327 312 301 312 306 290 273 275 311 283 266 262 259 261 254 249 248 239 231 226 222 218 215 220 210 201 202 202 202 206 210 212 204 185 179 172 175 177 177 175 171 162 176 177 161 155 153 157 155 156 160 162 162 163 167 169 169
36 50 57 66 41 63 83 111 121 123 137 141 155 165 177 206 217 242 244 245 247 263 288 350 351 324 340 358 355 325 333 358 21 32 26 23 288 270 264 243 243 255 246 238 234 233 229 224 218 216 215 210 197 185 189 199 202 204 205 205 198 186 172 157 148 151 157 162 158 154 158 157 155 151 150 148 150 155 161 162 162 165 163 159 156
34 49 53 55 60 77 112 124 122 126 149 152 154 184 193 209 216 221 232 239 249 248 293 17 350 324 355 7 337 0 31 37 30 28 45 62 97 255 249 231 235 243 241 232 220 221 226 212 207 211 202 201 197 178 181 198 195 197 205 208 191 169 148 134 135 135 137 143 137 141 144 143 145 145 146 149 153 158 162 164 165 161 155 143 131
39 53 62 66 86 98 130 126 130 146 152 152 168 178 190 198 203 204 220 236 252 269 310 13 351 327 9 19 5 25 70 82 68 49 47 53 32 30 154 145 153 208 203 223 202 205 213 213 212 210 195 191 183 168 178 190 188 191 203 199 170 135 113 124 131 129 132 132 129 130 135 138 145 140 148 153 157 160 162 162 158 148 135 126 119
52 61 78 86 86 109 141 132 133 146 162 159 150 176 193 201 191 187 209 233 259 295 340 8 314 333 22 39 7 87 95 88 80 97 81 61 58 94 107 117 137 137 163 227 201 185 189 198 192 188 183 181 169 162 179 181 173 179 176 153 130 121 117 124 123 124 124 123 124 127 137 141 149 148 153 157 159 159 158 154 148 137 128 119 110
72 85 84 91 94 103 136 147 150 159 159 149 152 158 176 195 188 180 209 238 264 274 27 2 315 353 22 17 353 36 85 75 68 79 70 64 63 72 83 88 98 94 117 192 210 169 154 168 177 177 172 166 164 167 171 165 157 143 131 131 124 123 123 118 120 119 120 123 126 132 142 146 148 151 153 154 154 152 148 142 131 121 110 106 106
84 95 100 98 99 134 135 128 144 167 150 138 129 134 153 140 174 205 223 224 255 303 11 342 323 350 12 3 348 359 44 94 105 71 61 65 67 55 37 21 48 117 154 150 137 128 150 155 157 160 158 163 166 165 157 149 142 126 121 116 121 118 115 114 117 120 123 128 130 131 137 138 146 142 144 142 140 139 126 120 120 113 110 106 105
96 101 105 105 110 102 110 116 116 124 128 122 125 127 130 163 188 218 225 220 254 244 164 269 307 345 12 345 330 359 345 66 81 82 92 83 53 46 20 301 227 163 142 132 136 147 157 160 157 158 156 158 163 150 143 140 131 123 116 117 112 117 114 112 123 124 130 126 128 134 141 147 135 133 130 129 126 122 120 115 111 108 106 103 104
99 106 107 109 115 125 128 112 124 120 110 113 118 113 133 136 188 250 247 241 253 289 44 341 317 324 346 318 322 336 335 22 78 105 0 12 65 89 223 229 208 175 142 134 132 137 146 152 157 156 153 148 143 132 129 130 123 114 115 109 109 103 104 106 123 126 122 122 124 129 135 135 127 120 115 114 109 110 111 109 105 105 106 106 103
103 106 110 113 117 125 125 121 113 103 104 118 118 105 110 156 203 243 265 279 285 331 11 340 302 304 295 290 302 354 333 96 109 95 346 352 1 17 343 317 189 116 93 101 104 111 142 152 145 138 134 130 121 122 124 125 114 109 105 105 101 97 102 125 124 124 121 124 123 124 127 119 116 113 111 107 108 105 106 104 104 104 104 104 103
105 110 111 112 118 123 126 123 119 117 123 116 104 107 114 136 187 234 251 252 291 320 348 2 296 307 332 345 29 93 101 81 87 101 119 98 46 30 27 38 74 95 107 119 120 125 137 127 118 110 106 104 110 109 114 111 107 102 102 97 99 103 129 120 122 120 120 116 114 125 116 111 109 108 111 108 107 105 101 100 103 103 101 102 101
100 106 108 113 118 121 125 126 123 122 117 109 106 104 92 106 130 134 147 163 234 263 111 100 322 358 340 91 99 91 84 79 58 39 82 80 73 59 57 70 100 136 149 142 112 100 107 105 103 101 100 98 91 112 104 98 96 99 99 104 103 130 118 119 118 120 116 118 122 115 111 106 105 107 104 105 106 106 104 104 104 103 101 98 98
99 105 110 112 116 121 124 125 125 122 120 115 112 110 102 110 122 127 130 178 198 178 132 129 121 131 125 105 106 99 68 62 58 58 66 50 51 56 63 60 49 47 66 65 73 88 90 93 94 95 92 89 94 98 98 100 100 90 95 102 127 120 121 117 114 112 116 119 119 111 107 104 105 104 104 103 104 105 103 103 102 100 98 97 96
103 102 108 112 113 121 126 128 126 124 121 119 115 114 116 119 126 123 132 133 144 143 141 126 115 110 127 110 106 102 87 82 0 359 36 61 63 51 55 64 66 61 52 70 78 85 84 86 86 89 90 89 96 99 104 109 111 114 117 116 120 118 112 114 112 112 114 116 119 97 104 105 105 106 107 107 104 103 102 102 100 100 98 98 96
113 109 110 112 115 117 120 125 125 126 127 126 124 127 128 129 128 127 131 132 136 132 117 112 108 105 88 78 69 84 76 73 68 76 83 75 75 78 74 83 88 88 78 94 94 94 88 92 91 87 99 104 108 115 117 119 124 125 124 126 119 112 110 109 116 116 110 106 107 90 98 102 103 104 106 104 103 103 101 98 100 100 100 100 98
112 107 113 110 114 118 118 121 124 129 132 132 131 130 124 129 133 131 124 122 119 115 102 103 99 99 99 114 109 99 97 97 98 100 93 89 87 90 98 102 102 103 100 106 106 101 105 106 108 110 110 115 120 125 127 123 125 122 124 120 118 110 114 115 117 111 110 104 93 85 92 99 102 103 105 106 105 102 102 101 100 100 99 99 98
111 116 112 117 117 115 117 121 129 133 137 133 131 127 130 129 126 122 113 114 114 108 112 110 109 104 115 113 96 88 99 103 111 112 110 110 115 113 113 112 111 112 111 113 110 111 112 112 113 114 118 119 124 119 116 128 122 118 124 120 118 119 114 114 112 107 105 104 92 77 86 94 97 102 105 105 104 103 101 100 98 98 98 97 97
118 112 111 111 110 114 119 125 131 133 132 134 133 128 126 124 126 112 122 122 110 116 123 120 105 107 107 111 116 118 107 102 101 106 114 121 125 124 120 115 115 114 117 115 114 116 118 119 120 121 120 124 126 126 125 108 115 119 112 121 115 119 114 115 111 105 101 102 94 71 81 88 95 100 103 104 103 101 100 98 98 97 94 92 93
117 115 119 116 118 123 116 125 127 131 133 131 136 133 130 129 124 131 132 124 132 141 139 122 109 107 112 115 119 122 114 105 101 109 115 120 119 116 115 119 120 120 118 123 126 127 129 128 128 128 126 124 120 124 117 120 110 117 117 110 110 108 113 113 111 105 107 101 96 78 76 85 96 99 100 101 101 101 100 99 100 98 98 97 96
129 124 120 125 123 121 124 130 132 131 130 132 135 133 133 132 133 134 132 125 140 143 124 132 128 125 135 140 134 129 128 125 131 121 114 110 109 115 118 121 126 124 128 131 133 133 135 134 132 131 130 128 127 124 122 123 129 127 124 119 112 111 102 107 107 105 99 95 98 90 75 88 94 97 97 97 98 99 100 100 98 96 94 94 94
134 127 136 131 136 128 135 139 142 137 132 139 136 137 133 130 128 126 122 126 123 118 125 129 134 149 144 134 131 121 119 125 123 118 110 111 116 119 124 124 127 131 129 131 133 136 137 137 135 131 131 130 125 124 121 123 119 121 118 114 109 106 113 107 95 89 87 98 102 101 89 83 91 92 94 94 95 95 95 96 95 94 93 91 89
133 140 143 132 127 134 142 138 139 139 135 141 133 131 128 128 125 123 129 131 116 117 120 124 126 120 84 88 104 121 133 134 128 125 127 125 127 128 128 129 131 129 130 133 134 135 136 133 133 130 128 130 123 119 118 122 121 118 109 119 112 110 105 103 100 108 105 102 102 107 108 98 84 89 90 92 93 93 93 91 91 91 91 90 88
143 144 148 127 135 133 147 134 135 130 125 130 129 127 128 126 127 131 134 123 122 121 122 123 114 102 95 96 110 120 122 126 132 132 127 131 131 126 129 131 129 128 129 132 130 127 130 128 130 128 129 126 126 118 112 118 127 124 119 115 115 112 109 104 100 92 102 96 106 114 118 117 107 78 85 89 88 90 88 88 88 88 88 87 86
146 142 135 129 136 138 129 128 126 122 121 128 124 124 126 132 130 137 136 126 132 131 131 132 127 123 126 130 130 133 134 132 129 125 118 119 122 126 128 127 126 126 124 121 121 128 131 133 133 131 130 130 128 125 126 124 120 117 122 115 112 119 110 105 106 106 102 114 122 117 116 114 113 110 98 77 84 83 84 84 84 84 85 85 85
143 137 131 135 129 132 129 130 118 123 117 125 119 128 126 129 132 132 136 132 132 129 131 135 133 136 135 143 141 137 134 132 127 119 121 114 109 119 123 127 126 121 122 122 120 125 130 132 134 134 138 133 130 131 133 131 124 124 125 123 121 119 116 114 113 106 108 119 118 123 121 118 118 117 114 106 71 75 78 79 80 81 82 83 83
139 141 140 126 126 131 120 126 117 119 125 123 124 131 135 138 140 135 136 129 133 135 133 131 137 136 137 147 144 135 131 124 119 112 106 107 115 113 125 125 118 122 124 121 116 123 122 131 135 135 141 135 131 132 134 129 130 129 121 110 117 114 110 116 103 110 122 115 124 123 120 121 119 124 124 117 115 80 66 73 77 78 80 80 81
137 130 132 123 119 129 116 121 113 125 126 124 125 129 132 134 133 129 140 126 130 136 133 136 133 135 139 145 138 133 128 119 115 108 103 105 110 105 100 108 115 120 112 110 116 125 125 128 129 134 138 136 141 143 134 126 123 121 112 118 128 123 124 112 114 116 120 120 115 118 121 122 122 113 107 109 104 107 62 69 71 75 77 77 79
152 130 127 127 118 129 116 126 133 117 125 122 119 116 123 129 124 132 131 129 130 127 131 127 127 139 123 137 132 127 121 117 114 114 121 122 120 126 122 104 102 105 108 111 117 123 123 129 133 138 140 143 145 146 144 134 131 122 125 131 125 123 116 108 119 115 119 122 125 130 128 131 124 130 132 130 124 111 105 61 64 66 66 68 69
147 149 140 145 141 134 135 133 123 116 119 120 120 120 122 118 129 123 130 128 127 134 129 123 121 116 135 136 116 112 118 111 115 114 114 113 109 111 103 100 99 101 105 99 116 126 129 133 136 141 136 145 145 147 146 134 132 132 133 134 130 122 122 124 115 123 129 135 143 128 131 130 129 124 126 111 106 106 109 117 95 85 53 48 60
159 173 153 151 147 140 136 131 120 117 115 110 108 111 112 111 113 121 120 122 123 121 118 118 122 120 128 105 110 119 114 112 112 115 118 119 116 109 110 95 106 107 112 119 122 127 132 132 140 138 141 137 146 144 146 137 140 142 137 132 135 132 133 129 121 124 127 126 136 139 138 134 132 134 129 120 127 118 116 111 99 97 97 28 45
176 182 147 145 137 126 131 116 120 120 117 115 112 115 117 120 120 115 121 118 122 124 115 118 110 130 132 128 100 100 106 108 111 110 115 117 116 118 108 110 102 109 108 113 124 134 131 127 132 129 137 145 152 150 155 146 140 143 135 139 142 129 144 127 127 126 126 135 150 137 146 135 138 135 134 146 133 137 115 109 102 100 99 95 39
184 179 147 146 137 120 121 126 129 125 125 124 132 128 131 131 128 128 127 133 120 111 122 114 125 131 120 112 106 118 105 107 110 109 112 111 112 112 110 106 109 104 105 104 110 116 122 131 135 130 137 152 157 160 162 137 144 151 135 141 149 156 146 130 125 140 134 153 134 146 131 135 155 158 158 153 148 118 122 117 114 112 97 85 97
204 188 173 162 143 134 141 140 135 126 129 135 137 138 138 143 143 143 138 151 140 138 150 152 131 131 110 116 123 112 100 105 102 104 106 107 111 112 105 106 105 101 92 87 97 113 125 132 135 147 142 144 158 164 166 156 157 154 149 137 144 139 152 145 146 152 158 162 160 174 145 176 168 175 157 169 170 168 155 152 135 97 74 93 99
211 203 198 188 161 152 158 151 156 130 141 139 133 133 144 154 155 154 160 156 162 169 162 138 141 136 106 101 110 103 102 92 93 97 110 110 108 104 109 110 101 104 100 99 103 113 120 127 140 154 142 147 161 168 164 170 162 150 151 154 151 147 142 154 150 149 167 170 168 186 167 194 168 176 150 179 192 155 174 164 175 69 75 92 91
213 214 204 208 176 176 173 175 189 167 154 147 104 129 141 141 148 154 151 175 175 153 140 132 126 131 105 86 78 92 92 106 104 117 129 120 119 118 118 114 114 108 103 94 104 120 125 135 142 143 154 153 158 163 167 166 175 167 161 146 155 156 163 156 168 155 160 170 179 195 149 175 208 178 183 180 182 164 175 187 196 223 39 24 32
214 217 210 217 194 228 216 198 205 196 176 41 80 118 127 141 155 155 157 164 182 163 159 152 125 63 83 261 295 46 45 82 113 132 162 142 133 132 120 117 113 116 118 133 136 122 111 124 143 144 158 161 156 160 167 170 170 169 170 176 168 168 162 154 144 165 154 153 170 181 183 164 203 197 153 240 187 203 169 183 212 245 176 208 6
215 216 216 218 209 235 244 233 212 209 214 246 58 120 141 144 141 149 158 171 179 195 176 182 197 208 225 261 257 265 211 96 16 140 178 165 158 151 136 116 132 135 134 127 115 116 143 141 142 151 158 162 162 165 160 176 171 167 177 176 176 169 172 163 167 143 159 163 151 161 212 176 181 189 185 186 245 239 193 176 201 180 204 165 209
212 218 218 218 221 226 249 250 221 217 219 231 50 136 161 154 140 144 157 169 192 209 205 195 201 199 228 240 252 254 257 196 213 222 163 169 168 169 156 154 148 163 152 136 137 147 161 152 149 154 156 158 166 170 169 170 169 179 181 170 179 181 172 172 177 164 158 178 149 159 199 202 194 195 171 184 201 243 244 180 198 243 200 183 195
213 216 217 220 224 226 240 248 236 227 230 265 266 263 175 171 156 157 167 179 198 220 220 214 214 211 226 237 227 245 252 247 227 230 216 183 181 191 185 176 176 163 144 142 135 175 155 165 153 150 150 158 166 177 170 174 165 187 184 182 178 173 178 180 178 163 173 167 179 171 179 207 204 209 205 178 199 204 216 275 108 242 290 225 242
217 218 219 223 227 226 236 250 244 225 231 247 236 270 226 175 157 155 176 193 207 216 210 224 219 221 231 242 243 235 247 262 267 246 240 216 207 214 206 205 182 175 154 173 167 175 166 162 158 159 164 163 168 166 170 178 175 175 186 185 183 184 174 182 180 179 189 173 165 166 184 182 196 223 185 236 177 252 224 172 185 245 204 247 196
220 224 221 223 226 227 236 246 245 228 231 229 237 258 258 178 156 150 171 203 211 221 216 219 222 230 231 246 250 250 235 240 249 268 265 269 255 221 203 237 199 209 167 161 152 157 168 167 185 185 165 163 165 171 167 171 178 176 175 193 177 188 194 185 192 192 185 184 185 174 193 194 175 206 224 245 171 215 186 244 270 248 261 230 172